This demonstration page uses our WeatherBlox Daily Observations layout. Learn more.

Left ArrowRight Arrow

Hourly Observations for October 2, 2022

Temp ( °F °C ) Dew Point ( °F °C ) Humidity (%) Winds ( mph kmh ) Pressure ( in mb ) Visibility ( mi km ) Precip ( " mm )
12:53 am 00:53 Clear 58 14.4 40 4.4 51 51 N 7 11 30.10 1019 10 16 0.00 0.00
1:53 am 01:53 Clear 55 12.8 41 5 59 59 NNW 5 7 30.09 1019 10 16 0.00 0.00
2:53 am 02:53 Clear 53 11.7 43 6.1 68 68 NNW 5 7 30.10 1019 10 16 0.00 0.00
3:53 am 03:53 Clear 53 11.7 46 7.8 77 77 N 3 6 30.10 1019 10 16 0.00 0.00
4:53 am 04:53 Clear 53 11.7 47 8.3 80 80 NNW 6 9 30.11 1020 10 16 0.00 0.00
5:53 am 05:53 Clear 53 11.7 48 8.9 83 83 N 7 11 30.13 1020 10 16 0.00 0.00
6:53 am 06:53 Clear 53 11.7 48 8.9 83 83 N 6 9 30.15 1021 10 16 0.00 0.00
7:53 am 07:53 Sunny 53 11.7 48 8.9 83 83 N 5 7 30.17 1022 10 16 0.00 0.00
8:53 am 08:53 Sunny 56 13.3 50 10 80 80 N 6 9 30.18 1022 10 16 0.00 0.00
9:53 am 09:53 Mostly Sunny 60 15.6 52 11.1 75 75 NNE 9 15 30.20 1023 10 16 0.00 0.00
10:25 am 10:25 Mostly Cloudy 62 16.7 51 10.6 67 67 NNE 13 20 30.20 1023 10 16 0.00 0.00
10:53 am 10:53 Mostly Cloudy 62 16.7 51 10.6 67 67 NNE 15 24 30.22 1023 10 16 0.00 0.00
11:53 am 11:53 Partly Cloudy 65 18.3 51 10.6 61 61 NNE 13 20 30.22 1023 10 16 0.00 0.00
12:53 pm 12:53 Partly Cloudy 67 19.4 51 10.6 57 57 NNE 10 17 30.21 1023 10 16 0.00 0.00
1:53 pm 13:53 Mostly Sunny 69 20.6 50 10 51 51 NNE 12 19 30.21 1023 10 16 0.00 0.00
2:53 pm 14:53 Sunny 68 20 49 9.4 50 50 NE 13 20 30.20 1023 10 16 0.00 0.00
3:53 pm 15:53 Mostly Sunny 69 20.6 49 9.4 49 49 NE 14 22 30.19 1023 10 16 0.00 0.00
4:53 pm 16:53 Sunny 69 20.6 49 9.4 49 49 N 10 17 30.20 1023 10 16 0.00 0.00
5:53 pm 17:53 Sunny 67 19.4 49 9.4 52 52 NE 15 24 30.22 1023 10 16 0.00 0.00
6:53 pm 18:53 Sunny 63 17.2 47 8.3 56 56 NNE 10 17 30.24 1024 10 16 0.00 0.00
7:53 pm 19:53 Clear 60 15.6 48 8.9 64 64 NNE 9 15 30.26 1025 10 16 0.00 0.00
8:53 pm 20:53 Clear 57 13.9 46 7.8 67 67 N 3 6 30.27 1025 10 16 0.00 0.00
9:53 pm 21:53 Clear 52 11.1 46 7.8 80 80 Calm 30.28 1025 10 16 0.00 0.00
10:53 pm 22:53 Clear 50 10 45 7.2 83 83 N 3 6 30.28 1025 10 16 0.00 0.00
11:53 pm 23:53 Clear 51 10.6 44 6.7 77 77 VRB 3 6 30.29 1026 10 16 0.00 0.00

Powered by AerisWeather